Content
SEND FEEDBACK

Daily
Averages
Monthly
Summary
United States of America

UMATAC, GUAM


Home > North America > United States > Guam
Elevation: 58 meters     Latitude: 13 17N     Longitude: 144 40E

WEATHER
 
SELECT A DAY
Number of Records: 356,611;   Date Range: 1/1/95 - 12/19/14
 
SHARE

PRINT THIS DATA

[ ← Previous Day ]
WEATHER ALMANAC - 28 SEPTEMBER, 2013
[ Next Day → ]
[ °F ]   °C
Weather ElementAverageHighLow
Temperature25.7 °C30.2 °C (12:58 pm)20 °C (3:33 am)
Dewpoint23.8 °C25.4 °C (10:58 am)19 °C (3:33 am)
Humidity89.7 %100 % (2:28 am)70 % (2:58 pm)
Barometer1005.8 hPa1008.1 hPa (12:46 am)1001.4 hPa (2:58 pm)
Wind Speed10.6 km/h25.9 km/h (3:18 am)
Wind Gust29.6 km/h (2:58 am)
Weather ElementAverage
Visibility13.2 km
Wind DirectionSSW (202.5 °)

Weather ElementTotal
Precipitation21.08 mm
Cooling Degree Days6.8 (Base 18.3)
Growing Degree Days15.1 (Base 10)
Averaged from 60 records on 28 September, 2013
WEATHER CONDITIONS BREAKOUT
WIND DIRECTION BREAKOUT
WEATHER BY HOUR - 28 SEPTEMBER, 2013
[ °F ]   °C
Local TimeTemperatureDewpointHumidityBarometerVisibilityWind DirectionWind SpeedGust SpeedPrecipitationEventsConditions
12:46 AM26 °C25 °C94 %1008.1 hPa16.1 kmWSW (250°)9.3 km/hPartly Cloudy
12:58 AM25.4 °C25 °C98 %1004.1 hPa16.1 kmWest (280°)7.4 km/h0 mmPartly Cloudy
1:23 AM26 °C25 °C94 %1008.1 hPa16.1 kmCalmMostly Cloudy
1:38 AM26 °C25 °C94 %1008.1 hPa16.1 kmWSW (250°)9.3 km/hMostly Cloudy
1:43 AM26 °C25 °C94 %1008.1 hPa16.1 kmWSW (240°)9.3 km/hMostly Cloudy
1:48 AM26 °C25 °C94 %1008.1 hPa16.1 kmWSW (240°)11.1 km/hMostly Cloudy
1:58 AM26 °C25 °C94 %1003.7 hPa16.1 kmWSW (240°)16.7 km/hMostly Cloudy
2:03 AM26 °C25 °C94 %1007.5 hPa16.1 kmWSW (240°)16.7 km/hMostly Cloudy
2:28 AM25 °C25 °C100 %1007.5 hPa16.1 kmWest (260°)13 km/hMostly Cloudy
2:33 AM25 °C25 °C100 %1007.5 hPa16.1 kmWest (270°)9.3 km/hMostly Cloudy
2:43 AM25 °C25 °C100 %1007.5 hPa12.9 kmNW (310°)9.3 km/hThunderstormMostly Cloudy
2:44 AM25 °C25 °C100 %1007.5 hPa11.3 kmNW (310°)9.3 km/hThunderstormThunderstorm
2:46 AM25 °C25 °C100 %1007.5 hPa8 kmNW (320°)9.3 km/hRain-ThunderstormLight Thunderstorms and Rain
2:56 AM23 °C22 °C94 %1007.8 hPa4.8 kmNNW (340°)20.4 km/hRain-ThunderstormHeavy Thunderstorms and Rain
2:58 AM23.7 °C23.2 °C97 %1003.7 hPa6.4 kmNorth (350°)22.2 km/h29.6 km/h2.03 mmRain-ThunderstormHeavy Thunderstorms and Rain
3:03 AM21 °C20 °C94 %1007.8 hPa6.4 kmNorth (350°)18.5 km/h29.6 km/hRain-ThunderstormHeavy Thunderstorms and Rain
3:18 AM21 °C20 °C94 %1007.8 hPa6.4 kmNorth (350°)25.9 km/hRain-ThunderstormHeavy Thunderstorms and Rain
3:23 AM22 °C21 °C94 %1007.8 hPa4.8 kmNorth (350°)16.7 km/hRain-ThunderstormHeavy Thunderstorms and Rain
3:28 AM21 °C20 °C94 %1008.1 hPa4 kmNorth (360°)11.1 km/hRain-ThunderstormHeavy Thunderstorms and Rain
3:33 AM20 °C19 °C94 %1008.1 hPa4.8 kmNNW (330°)11.1 km/hRain-ThunderstormHeavy Thunderstorms and Rain
3:46 AM24 °C23 °C94 %1008.1 hPa16.1 kmNW (310°)7.4 km/hRainRain
3:51 AM24 °C23 °C94 %1008.1 hPa16.1 kmNW (310°)7.4 km/hRainRain
3:56 AM24 °C23 °C94 %1007.8 hPa16.1 kmWest (280°)1.9 km/hRainLight Rain
3:58 AM24 °C23 °C94 %1004.1 hPa16.1 kmCalm18.29 mmRainLight Rain
4:03 AM24 °C23 °C94 %1007.8 hPa16.1 kmCalmRainLight Rain
4:08 AM24 °C23 °C94 %1007.8 hPa16.1 kmWSW (250°)1.9 km/hRainLight Rain
4:22 AM24 °C23 °C94 %1007.8 hPa16.1 kmNNW (330°)1.9 km/hPartly Cloudy
4:23 AM24 °C23 °C94 %1007.8 hPa16.1 kmVariable3.7 km/hLight Drizzle
4:58 AM24 °C23 °C94 %1004.4 hPa16.1 kmWSW (250°)7.4 km/h0.25 mmRainLight Rain
5:58 AM24.1 °C23.9 °C99 %1004.1 hPa16.1 kmWest (260°)11.1 km/h0.51 mmLight Drizzle
6:13 AM24 °C24 °C100 %1007.8 hPa16.1 kmWest (270°)11.1 km/hPartly Cloudy
6:58 AM23.9 °C23.7 °C99 %1003.7 hPa16.1 kmWSW (250°)13 km/h0 mmMostly Cloudy
7:58 AM25.1 °C24.6 °C97 %1003.7 hPa16.1 kmWest (260°)9.3 km/hPartly Cloudy
8:58 AM26.2 °C24.5 °C90 %1005.1 hPa16.1 kmNE (50°)3.7 km/hPartly Cloudy
9:58 AM26 °C22.7 °C82 %1004.7 hPa16.1 kmVariable3.7 km/hPartly Cloudy
10:58 AM28.9 °C25.4 °C81 %1003.7 hPa16.1 kmESE (110°)13 km/hScattered Clouds
11:03 AM28 °C24 °C79 %1007.8 hPa16.1 kmESE (120°)11.1 km/hScattered Clouds
11:58 AM29.1 °C25.4 °C80 %1002.4 hPa14.5 kmEast (100°)13 km/hMostly Cloudy
12:03 PM29 °C25 °C79 %1006.8 hPa12.9 kmESE (120°)13 km/hMostly Cloudy
12:58 PM30.2 °C25 °C74 %1002 hPa12.9 kmSouth (190°)13 km/hMostly Cloudy
1:38 PM29 °C25 °C79 %1005.8 hPa12.9 kmSouth (190°)16.7 km/hMostly Cloudy
1:58 PM28.4 °C24.8 °C81 %1001.7 hPa16.1 kmWest (280°)16.7 km/hOvercast
2:08 PM28 °C25 °C84 %1005.8 hPa16.1 kmWSW (250°)11.1 km/hMostly Cloudy
2:18 PM28 °C25 °C84 %1005.8 hPa14.5 kmSouth (190°)7.4 km/hMostly Cloudy
2:23 PM28 °C24 °C79 %1005.8 hPa12.9 kmSSE (150°)18.5 km/hMostly Cloudy
2:28 PM28 °C24 °C79 %1005.4 hPa11.3 kmSSE (160°)14.8 km/hMostly Cloudy
2:33 PM28 °C24 °C79 %1005.8 hPa11.3 kmSouth (170°)14.8 km/hMostly Cloudy
2:58 PM29.5 °C23.4 °C70 %1001.4 hPa11.3 kmSouth (170°)13 km/hClear
3:58 PM29.1 °C24.4 °C76 %1001.4 hPa11.3 kmSouth (170°)16.7 km/hScattered Clouds
4:18 PM29 °C25 °C79 %1005.4 hPa14.5 kmSouth (170°)20.4 km/hMostly Cloudy
4:28 PM28 °C25 °C84 %1005.8 hPa14.5 kmSouth (170°)20.4 km/hMostly Cloudy
4:33 PM28 °C25 °C84 %1005.8 hPa14.5 kmSouth (180°)20.4 km/hMostly Cloudy
4:58 PM27.6 °C24.3 °C82 %1001.7 hPa14.5 kmSouth (190°)18.5 km/hPartly Cloudy
5:58 PM26.9 °C24.7 °C88 %1002.4 hPa6.4 kmSouth (170°)11.1 km/hScattered Clouds
6:58 PM24.8 °C23 °C90 %1002.7 hPa11.3 kmSSE (150°)7.4 km/hScattered Clouds
7:58 PM26.5 °C23.8 °C85 %1003 hPa11.3 kmSE (130°)5.6 km/hPartly Cloudy
8:58 PM26.6 °C24.1 °C86 %1003.7 hPa11.3 kmCalmClear
9:58 PM25.9 °C24.4 °C91 %1003.7 hPa9.7 kmCalmClear
10:58 PM24.2 °C22.1 °C88 %1003 hPa11.3 kmSSE (160°)3.7 km/hMostly Cloudy
11:58 PM25.5 °C24.3 °C93 %1002.4 hPa12.9 kmCalmScattered Clouds
Hourly data recorded from PGUA, located 0 kilometers away from Umatac, Guam







STORIES FROM OUR PARTNERS